Location: Springfield
(37.2150°N, 93.2980°W)
Time: 07:13:11
(UTC-05:00)

Resurs 01 Rocket - Pass Details

Date: 19 April 2018
Orbit: 634 x 645 km, 98.1° (Epoch: 23 May)

Event Time Altitude Azimuth Distance (km) Brightness Sun altitude
Exits shadow 20:52:32 11° 152° (SSE) 1,964 3.7 -12.2°
Maximum altitude 20:56:42 57° 74° (ENE) 761 1.7 -12.9°
Drops below altitude 10° 21:01:04 10° 356° (N) 2,043 4.6 -13.7°
Sets 21:03:18 0° 353° (N) 2,954 5.5 -14.1°
